ITUPSAT1

Last updated on Sat Apr 13 2024 01:02:57 GMT+0100 (British Summer Time)

1 35935U 09051E 24103.62854225 .00001049 00000+0 24130-3 0 9990 2 35935 98.4828 346.4266 0007866 170.7242 189.4102 14.57510081772718
UTC large
Height (km)
Speed (km/s)
/
Latitude / Longitude
Inclination (degrees)
Orbital Period (minutes)
Azimuth
Elevation
Range (km)
Doppler Factor

Next 0 passes for location: London (51.5072 / 0.1276)

Sorry there are no passes over London.